Buger, Spain

2:07 PM CEST on August 17, 2017 (GMT +0200)
Buger

Weather History for 08306 - October, 2012

Change the Weather History Date:

Tuesday, October 23, 2012

  Actual Average Record
Temperature  
Mean Temperature 66 °F -  
Max Temperature 75 °F 66 °F - ()
Min Temperature 57 °F 48 °F - ()
Cooling Degree Days 1    
Growing Degree Days 16 (Base 50)    
Moisture  
Dew Point 58 °F    
Average Humidity 77    
Maximum Humidity 94    
Minimum Humidity 37    
Precipitation  
Precipitation 0.00 in 0.07 in - ()
Sea Level Pressure  
Sea Level Pressure 30.05 in    
Wind  
Wind Speed 3 mph ()    
Max Wind Speed 9 mph    
Max Gust Speed -    
Visibility 6.9 miles    
Events      
T = Trace of Precipitation, MM = Missing Value Source: Averaged Metar Reports

Daily Weather History Graph

Daily Weather History Graph

Search for Another Location

Airport or City:

Trip Planner

Search our weather history database for the weather conditions in past years. The results will help you decide how hot, cold, wet, or windy it might be!

Date:

Astronomy

Oct. 23, 2012 Rise Set
Actual Time 8:07 AM CEST 6:58 PM CEST
Civil Twilight 7:40 AM CEST 7:25 PM CEST
Nautical Twilight 7:08 AM CEST 7:57 PM CEST
Astronomical Twilight 6:37 AM CEST 8:28 PM CEST
Moon 3:31 PM CEST (10/23) 1:44 AM CEST (10/23)
Length of Visible Light 11h 45m
Length of Day
10h 50m
Waxing Gibbous, 64% of the Moon is Illuminated
Oct 23
Waxing Gibbous
Oct 29
Full
Nov 7
Last Quarter
Nov 13
New
Nov 20
First Quarter

Hourly Weather History & Observations

Time (CEST) Temp. Dew Point Humidity Pressure Visibility Wind Dir Wind Speed Gust Speed Precip Events Conditions
12:00 AM 62.6 °F 59.0 °F 88% 30.06 in 6.2 mi SSE 2.3 mph - N/A   Partly Cloudy
1:00 AM 66.2 °F 60.8 °F 83% 30.04 in 6.2 mi West 4.6 mph - N/A   Partly Cloudy
1:30 AM 66.2 °F 59.0 °F 78% 30.04 in 6.2 mi WNW 5.8 mph - N/A   Partly Cloudy
2:00 AM 64 °F 57 °F 70% 30.06 in 9 mi SW 4.6 mph - -   Scattered Clouds
2:00 AM 66.2 °F 59.0 °F 78% 30.04 in 6.2 mi WSW 4.6 mph - N/A   Partly Cloudy
3:00 AM 66.2 °F 59.0 °F 78% 30.04 in 6.2 mi North 4.6 mph - N/A   Partly Cloudy
3:30 AM 64.4 °F 59.0 °F 83% 30.04 in 6.2 mi North 3.5 mph - N/A   Partly Cloudy
4:00 AM 60.8 °F 57.2 °F 88% 30.04 in 6.2 mi ENE 3.5 mph - N/A   Partly Cloudy
4:30 AM 59.0 °F 57.2 °F 94% 30.04 in 6.2 mi Variable 1.2 mph - N/A   Partly Cloudy
5:00 AM 59.0 °F 57.2 °F 94% 30.04 in 6.2 mi NE 3.5 mph - N/A   Partly Cloudy
5:30 AM 59.0 °F 57.2 °F 94% 30.04 in 6.2 mi NNE 1.2 mph - N/A   Partly Cloudy
6:00 AM 60.8 °F 57.2 °F 88% 30.04 in 6.2 mi South 3.5 mph - N/A   Partly Cloudy
6:30 AM 60.8 °F 57.2 °F 88% 30.04 in 6.2 mi Calm Calm - N/A   Partly Cloudy
7:30 AM 59.0 °F 57.2 °F 94% 30.04 in 6.2 mi Variable 1.2 mph - N/A   Partly Cloudy
8:00 AM 58 °F 55 °F 85% 30.07 in 11 mi East 1.2 mph - -   Scattered Clouds
8:00 AM 59.0 °F 57.2 °F 94% 30.06 in 6.2 mi SSE 1.2 mph - N/A   Partly Cloudy
9:00 AM 59.0 °F 57.2 °F 94% 30.06 in 6.2 mi ENE 4.6 mph - N/A   Partly Cloudy
10:00 AM 64.4 °F 59.0 °F 83% 30.06 in 6.2 mi Variable 1.2 mph - N/A   Partly Cloudy
10:30 AM 68.0 °F 59.0 °F 73% 30.06 in 6.2 mi Calm Calm - N/A   Partly Cloudy
11:00 AM 69.8 °F 59.0 °F 68% 30.09 in 6.2 mi Calm Calm - N/A   Partly Cloudy
12:30 PM 73.4 °F 59.0 °F 61% 30.09 in 6.2 mi NNW 1.2 mph - N/A   Partly Cloudy
1:00 PM 73.4 °F 55.4 °F 53% 30.06 in 6.2 mi NW 2.3 mph - N/A   Partly Cloudy
2:00 PM 74 °F 53 °F 37% 30.07 in 16 mi NNW 6.9 mph - -   Scattered Clouds
2:30 PM 71.6 °F 57.2 °F 60% 30.04 in 6.2 mi ENE 9.2 mph - N/A   Partly Cloudy
3:00 PM 75.2 °F 57.2 °F 53% 30.04 in 6.2 mi East 3.5 mph - N/A   Partly Cloudy
4:30 PM 75.2 °F 59.0 °F 57% 30.04 in 6.2 mi Variable 1.2 mph - N/A   Partly Cloudy
5:30 PM 73.4 °F 57.2 °F 57% 30.04 in 6.2 mi ENE 8.1 mph - N/A   Partly Cloudy
6:00 PM 71.6 °F 55.4 °F 57% 30.04 in 6.2 mi Calm Calm - N/A   Partly Cloudy
6:30 PM 71.6 °F 57.2 °F 60% 30.04 in 6.2 mi Variable 1.2 mph - N/A   Partly Cloudy
7:00 PM 69.8 °F 57.2 °F 64% 30.04 in 6.2 mi Calm Calm - N/A   Partly Cloudy
7:30 PM 68.0 °F 59.0 °F 73% 30.06 in 6.2 mi Calm Calm - N/A   Partly Cloudy
8:00 PM 66 °F 54 °F 57% 30.08 in 12 mi NNE 1.2 mph - -   Scattered Clouds
8:00 PM 66.2 °F 57.2 °F 73% 30.06 in 6.2 mi Variable 2.3 mph - N/A   Partly Cloudy
8:30 PM 66.2 °F 59.0 °F 78% 30.06 in - SE 2.3 mph - N/A   Clear
9:30 PM 62.6 °F 59.0 °F 88% 30.06 in - NE 1.2 mph - N/A   Clear
10:00 PM 60.8 °F 59.0 °F 94% 30.06 in - NE 1.2 mph - N/A   Clear
10:30 PM 60.8 °F 59.0 °F 94% 30.06 in - Variable 1.2 mph - N/A   Clear
11:00 PM 60.8 °F 59.0 °F 94% 30.06 in - Calm Calm - N/A   Clear
11:30 PM 60.8 °F 59.0 °F 94% 30.06 in - Calm Calm - N/A   Clear